Location: Erlenbrunn
(49.1717°N, 7.6142°E)
Time: 04:46:50
(UTC+00:00)

USA 215 - Pass Details

Date: 25 November 2020
Orbit: 1099 x 1109 km, 123.0° (Epoch: 22 January)

Event Time Altitude Azimuth Distance (km) Brightness Sun altitude
Exits shadow 16:03:35 - 65° (ENE) 3,411 5.1 -4.5°
Reaches altitude 10° 16:05:02 10° 73° (ENE) 2,965 4.9 -4.7°
Maximum altitude 16:10:17 25° 126° (SE) 2,044 4.5 -5.5°
Drops below altitude 10° 16:15:30 10° 180° (S) 2,948 5.9 -6.3°
Sets 16:18:28 0° 193° (SSW) 3,900 6.7 -6.7°
